• Processing (Info)

  • MPEC 2007-V64 : 2007 VV83

    The following Minor Planet Electronic Circular may be linked-to from your own Web pages, but must not otherwise be redistributed electronically.

    A form allowing access to any MPEC is at the bottom of this page.


    Read MPEC 2007-V63 Read MPEC 2007-V65


    M.P.E.C. 2007-V64                                Issued 2007 Nov. 8, 14:01 UT
    
         The Minor Planet Electronic Circulars contain information on unusual
             minor planets and routine data on comets.  They are published
       on behalf of Commission 20 of the International Astronomical Union by the
              Minor Planet Center, Smithsonian Astrophysical Observatory,
                              Cambridge, MA 02138, U.S.A.
    
                 Prepared using the Tamkin Foundation Computer Network
    
                                  MPC@CFA.HARVARD.EDU
              URL http://www.cfa.harvard.edu/iau/mpc.html  ISSN 1523-6714
    
                                       2007 VV83
    
    Observations:
         K07V83V* C2007 11 07.25813 02 16 24.97 +20 34 38.6          19.4   EV064704
         K07V83V  C2007 11 07.28363 02 16 19.63 +20 28 33.5          19.5   EV064704
         K07V83V  C2007 11 07.29593 02 16 17.00 +20 25 37.1          19.3   EV064704
         K07V83V  C2007 11 07.30829 02 16 14.39 +20 22 39.9          19.7   EV064704
         K07V83V 5C2007 11 08.23282 02 14 14.58 +16 38 06.0          18.4 R EV064673
         K07V83V 5C2007 11 08.23785 02 14 13.55 +16 36 52.6                 EV064673
         K07V83V 5C2007 11 08.24248 02 14 12.59 +16 35 43.2                 EV064673
         K07V83V 5C2007 11 08.24757 02 14 11.55 +16 34 28.5                 EV064673
         K07V83V  C2007 11 08.25845 02 14 07.94 +16 31 53.8          19.1 V EV064G96
         K07V83V  C2007 11 08.25898 02 14 07.83 +16 31 46.1          18.9 V EV064G96
         K07V83V  C2007 11 08.25953 02 14 07.72 +16 31 38.1          18.9 V EV064G96
         K07V83V  C2007 11 08.26006 02 14 07.62 +16 31 30.0          19.0 V EV064G96
    
    Observer details:
    673 Table Mountain Observatory, Wrightwood.  Observer J. Young.  0.61-m f/16
        Cassegrain + CCD.
    704 Lincoln Laboratory ETS, New Mexico.  Observers M. Bezpalko, D. Torres,
        R. Kracke, G. Spitz, J. Kistler.  Measurers J. Stuart, S. Scruggs.  1.0-m
        f/2.15 reflector + CCD.
    G96 Mt. Lemmon Survey.  Observer R. E. Hill.  Measurers E. C. Beshore,
        A. Boattini, G. J. Garradd, A. R. Gibbs, A. D. Grauer, R. E. Hill,
        R. A. Kowalski, S. M. Larson, R. H. McNaught.  1.5-m reflector + CCD.
    
    Orbital elements:
    2007 VV83                                                Earth MOID = 0.0401 AU
    Epoch 2007 Oct. 27.0 TT = JDT 2454400.5                 MPC
    M 218.46453              (2000.0)            P               Q
    n   1.03470482     Peri.  316.43393     -0.99149607     +0.02851151
    a   0.9681108      Node   225.67172     +0.00793432     -0.96064562
    e   0.1004502      Incl.   10.22423     -0.12989451     -0.27630976
    P   0.95           H   25.0           G   0.15           U   8
    Residuals in seconds of arc
    071107 704  0.2-  0.9+    071108 673  0.1+  0.3+    071108 G96  0.2-  0.6-
    071107 704  0.5+  0.3-    071108 673  0.1+  1.0+    071108 G96  0.1-  0.4-
    071107 704  0.0   0.5-    071108 673  0.0   0.0     071108 G96  0.1-  0.2-
    071107 704  0.3-  0.2-    071108 673  0.1+  0.4+    071108 G96  0.1+  0.5-
    
    Ephemeris:
    2007 VV83                a,e,i = 0.97, 0.10, 10                  q = 0.8709
    Date    TT    R. A. (2000) Decl.     Delta      r     Elong.  Phase     V
    2007 11 06    02 19.34   +25 24.3    0.0466   1.037   168.9    10.6    19.1
    2007 11 07    02 17.01   +21 36.4    0.0453   1.036   171.1     8.5    18.9
    2007 11 08    02 14.71   +17 36.6    0.0443   1.035   171.4     8.3    18.9
    2007 11 09    02 12.45   +13 27.2    0.0436   1.034   169.4    10.2    18.9
    2007 11 10    02 10.24   +09 11.0    0.0431   1.032   165.9    13.5    19.0
    2007 11 11    02 08.09   +04 51.2    0.0429   1.031   161.8    17.4    19.1
    2007 11 12    02 06.01   +00 31.3    0.0430   1.030   157.4    21.7    19.3
    2007 11 13    02 03.99   -03 45.3    0.0434   1.029   152.9    26.0    19.4
    2007 11 14    02 02.06   -07 55.4    0.0440   1.027   148.4    30.3    19.6
    2007 11 15    02 00.20   -11 56.2    0.0448   1.026   144.1    34.5    19.7
    2007 11 16    01 58.43   -15 45.8    0.0459   1.025   139.9    38.5    19.9
    2007 11 17    01 56.75   -19 22.6    0.0472   1.023   135.9    42.3    20.1
    2007 11 18    01 55.15   -22 45.9    0.0486   1.022   132.1    45.9    20.2
    2007 11 19    01 53.64   -25 55.5    0.0502   1.020   128.5    49.3    20.4
    2007 11 20    01 52.22   -28 51.3    0.0520   1.019   125.1    52.5    20.6
    2007 11 21    01 50.88   -31 34.0    0.0539   1.018   122.0    55.4    20.7
    2007 11 22    01 49.63   -34 04.3    0.0559   1.016   119.1    58.2    20.9
    2007 11 23    01 48.45   -36 22.8    0.0580   1.015   116.3    60.7    21.0
    2007 11 24    01 47.34   -38 30.5    0.0602   1.013   113.8    63.1    21.2
    2007 11 25    01 46.31   -40 28.2    0.0624   1.012   111.4    65.3    21.3
    2007 11 26    01 45.34   -42 16.8    0.0647   1.010   109.2    67.3    21.4
    2007 11 27    01 44.44   -43 57.1    0.0671   1.009   107.1    69.2    21.6
    2007 11 28    01 43.59   -45 29.8    0.0695   1.007   105.2    71.0    21.7
    2007 11 29    01 42.79   -46 55.7    0.0719   1.005   103.3    72.7    21.8
    2007 11 30    01 42.05   -48 15.2    0.0744   1.004   101.6    74.2    22.0
    2007 12 01    01 41.35   -49 29.1    0.0768   1.002   100.0    75.7    22.1
    2007 12 02    01 40.70   -50 37.9    0.0793   1.001    98.4    77.1    22.2
    2007 12 03    01 40.10   -51 42.0    0.0818   0.999    97.0    78.3    22.3
    2007 12 04    01 39.53   -52 41.8    0.0843   0.997    95.6    79.6    22.4
    2007 12 05    01 39.00   -53 37.9    0.0868   0.996    94.3    80.7    22.5
    2007 12 06    01 38.51   -54 30.5    0.0893   0.994    93.1    81.8    22.6
    
    Timothy B. Spahr             (C) Copyright 2007 MPC           M.P.E.C. 2007-V64
    

    Read MPEC 2007-V63 Read MPEC 2007-V65


    MPEC number:

    Enter an MPEC number in one of the following forms:

    • 1997-B01 (the full form)
    • J97B01 (the packed version of the full form)
    • B01 (the abbreviated form)